Location: Newark
(41.8083°N, 72.2500°W)
Time: 21:11:24
(UTC+00:00)

Courier 1B - Pass Details

Date: 07 December 2021
Orbit: 962 x 1209 km, 28.3° (Epoch: 19 January)

Event Time Altitude Azimuth Distance (km) Brightness Sun altitude
Rises 23:47:11 0° 257° (WSW) 4,004 12.0 -27.0°
Reaches altitude 10° 23:50:50 10° 242° (WSW) 2,999 10.9 -27.7°
Maximum altitude 23:55:57 20° 197° (SSW) 2,251 9.6 -28.6°
Enters shadow 23:59:18 15° 164° (SSE) 2,538 9.5 -29.2°
Drops below altitude 10° 00:00:54 10° 152° (SSE) 2,863 - -29.5°
Sets 00:04:17 0° 137° (SE) 3,771 - -30.2°
